This is the latest recevied weather packets stored in our database for station/object WE1C. If no packets are shown the sender has not sent any weather packets the latest 10 day(s).
| Time | Temp. | Humidity | Pressure | Rain* | Wind** | Luminosity | Snow |
|---|---|---|---|---|---|---|---|
| 1787833005 | 19.44° C | 99% | 1046.9 hPa | 0 mm | - | 75 W/m² | - |
| 1787832701 | 19.44° C | 99% | 1046.8 hPa | 0 mm | - | 57 W/m² | - |
| 1787832400 | 18.89° C | 99% | 1047.1 hPa | 0 mm | - | 46 W/m² | - |
| 1787832094 | 18.89° C | 99% | 1047 hPa | 0 mm | - | 52 W/m² | - |
| 1787831793 | 18.89° C | 99% | 1046.9 hPa | 0 mm | - | 58 W/m² | - |
| 1787831493 | 18.89° C | 99% | 1047.2 hPa | 0 mm | - | 52 W/m² | - |
| 1787831191 | 18.89° C | 99% | 1047 hPa | 0 mm | - | 49 W/m² | - |
| 1787830888 | 18.89° C | 99% | 1047 hPa | 0 mm | - | 50 W/m² | - |
| 1787830587 | 18.89° C | 99% | 1046.8 hPa | 0 mm | - | 52 W/m² | - |
| 1787830286 | 18.89° C | 99% | 1047 hPa | 0 mm | - | 53 W/m² | - |
| 1787829981 | 18.33° C | 99% | 1046.8 hPa | 0 mm | - | 59 W/m² | - |
| 1787829681 | 18.33° C | 99% | 1046.8 hPa | 0 mm | - | 43 W/m² | - |
| 1787829376 | 18.33° C | 99% | 1046.9 hPa | 0 mm | - | 39 W/m² | - |
| 1787829072 | 18.33° C | 99% | 1046.7 hPa | 0 mm | - | 39 W/m² | - |
| 1787828767 | 18.33° C | 99% | 1046.9 hPa | 0 mm | - | 32 W/m² | - |
| 1787828464 | 17.78° C | 99% | 1046.9 hPa | 0 mm | - | 30 W/m² | - |
| 1787828162 | 17.78° C | 99% | 1046.9 hPa | 0 mm | - | 26 W/m² | - |
| 1787827861 | 17.78° C | 99% | 1046.8 hPa | 0 mm | - | 20 W/m² | - |
| 1787827557 | 17.22° C | 99% | 1046.9 hPa | 0 mm | - | 19 W/m² | - |
| 1787827256 | 17.22° C | 99% | 1046.9 hPa | 0 mm | - | 20 W/m² | - |
| 1787826955 | 17.22° C | 99% | 1046.9 hPa | 0 mm | - | 14 W/m² | - |
| 1787826650 | 16.67° C | 99% | 1046.9 hPa | 0 mm | - | 10 W/m² | - |
| 1787826346 | 16.67° C | 99% | 1046.8 hPa | 0 mm | - | 7 W/m² | - |
| 1787826043 | 16.67° C | 99% | 1046.9 hPa | 0 mm | - | 3 W/m² | - |
| 1787825741 | 16.67° C | 99% | 1046.9 hPa | 0 mm | - | 3 W/m² | - |
* Rain latest hour (hover to see other rain measurements)
** Current wind speed in m/s (hover to see current wind gust speed)